Theta_e
318 317 317 318 319 319 320 321 321 321 322 323 322 323 322 323 324 324 325 325 326 328 334 335 344 354 352 351 351 350 352 354 352 351 349 353 351 345 337 334 334 333 329 328
321 320 319 319 320 321 321 321 321 322 322 323 323 322 323 323 324 324 325 325 326 328 331 334 348 355 352 353 350 349 348 351 350 351 350 353 350 343 336 333 331 328 328 328
320 321 322 321 320 319 320 320 320 321 321 321 321 322 323 322 323 324 325 326 326 327 328 333 356 355 353 352 350 348 347 353 350 352 351 352 346 341 335 332 330 329 328 328
321 321 321 322 321 320 320 320 320 319 319 319 321 322 325 324 324 324 325 325 325 326 327 329 350 350 350 353 349 346 348 348 351 351 351 353 347 341 336 334 331 330 328 327
321 321 321 321 321 321 320 320 320 320 320 321 320 321 321 324 324 325 325 325 325 326 326 326 337 345 349 347 350 348 337 333 349 348 350 352 348 341 336 334 331 330 329 328
320 321 321 321 321 321 321 319 319 320 320 322 321 321 322 322 325 324 325 326 326 326 325 326 326 353 354 352 351 350 351 352 351 346 342 347 349 344 340 335 331 331 330 329
322 320 321 321 321 321 321 321 322 322 321 322 320 321 323 324 323 324 327 329 331 330 329 329 329 347 354 352 353 352 353 350 347 335 334 349 343 348 342 339 332 331 331 331
320 321 322 322 323 321 320 322 324 324 324 321 322 323 322 324 324 324 327 328 329 330 330 331 331 332 331 352 346 350 352 354 352 350 350 351 349 347 334 337 333 331 330 330
319 319 318 319 321 323 324 323 322 326 325 325 326 324 324 323 325 326 326 327 330 330 330 329 330 332 334 334 347 335 353 353 355 352 350 344 344 343 336 332 339 332 330 330
315 316 314 315 316 320 322 323 324 325 328 328 327 327 329 332 332 327 327 328 330 329 328 329 330 334 334 334 332 346 328 352 353 351 351 347 348 346 343 342 338 333 330 331
310 312 312 313 313 315 316 317 320 323 325 327 331 329 331 334 333 332 329 330 328 328 330 330 331 333 333 334 336 336 346 351 354 352 350 349 346 338 335 345 341 335 331 331
309 311 312 311 311 311 311 315 317 323 328 328 330 330 330 330 329 327 327 326 322 326 328 330 330 331 332 333 333 336 337 335 355 350 345 348 345 340 339 344 341 335 336 331
309 310 311 309 309 311 311 312 314 317 321 322 327 328 327 327 326 325 323 320 318 320 325 329 330 330 331 331 332 332 334 336 335 351 348 348 350 350 347 347 343 335 334 333
306 307 307 307 308 309 309 310 310 314 317 317 316 317 326 326 327 324 319 315 317 316 321 323 325 327 329 330 331 331 334 335 337 337 353 352 351 350 348 344 340 337 333 333
307 309 308 309 308 308 308 308 308 308 310 312 314 314 315 318 323 321 319 316 315 313 317 320 319 324 328 329 330 332 336 337 338 338 347 353 350 348 345 340 337 337 334 332
312 313 310 309 309 308 308 309 309 306 306 307 307 308 309 311 315 315 316 314 312 311 312 314 316 318 326 326 327 330 331 334 337 337 337 337 345 344 342 338 336 335 334 333
312 312 310 310 308 308 311 309 309 309 308 308 307 307 309 309 311 312 311 310 310 310 311 313 313 315 322 323 326 326 328 331 332 335 336 339 341 339 338 336 335 334 333 332
310 310 309 310 308 312 309 308 308 309 309 309 309 309 309 309 311 309 310 310 310 310 312 313 313 313 314 318 320 322 325 327 329 330 333 333 335 339 338 337 336 332 331 334
310 309 311 312 309 309 308 308 308 309 310 310 309 309 309 310 311 309 313 313 313 315 314 314 313 313 313 313 316 322 324 326 326 330 329 330 330 333 338 338 338 336 332 332
307 310 311 308 312 312 309 309 311 310 311 313 314 313 313 315 311 311 314 313 313 312 311 312 312 312 314 313 313 322 322 324 325 327 329 325 327 331 333 336 335 335 335 335
309 313 315 316 314 310 311 311 311 311 313 312 311 312 313 314 316 316 313 311 311 311 311 310 311 311 312 314 317 320 323 322 324 325 327 324 323 328 333 332 334 334 334 334
312 314 316 314 316 316 311 309 310 312 312 310 310 310 311 313 313 313 313 312 311 311 310 310 311 311 310 311 315 319 321 322 321 324 324 321 318 320 325 330 333 333 332 333
314 313 315 313 313 313 311 310 310 310 310 310 309 309 310 311 311 311 312 312 311 311 311 311 311 311 310 310 313 318 318 322 321 323 322 319 317 316 316 320 322 327 327 328
310 310 313 312 309 310 309 309 308 308 307 306 306 306 307 308 310 311 310 311 311 309 310 310 310 310 311 310 311 313 318 320 320 321 320 318 318 315 315 314 313 310 310 309
309 310 311 312 310 308 307 306 306 305 305 305 305 306 306 307 308 309 310 310 310 308 309 310 310 311 311 310 310 316 318 315 318 320 319 317 316 314 310 312 312 314 312 313
312 310 311 311 307 306 305 304 304 305 305 305 305 305 306 306 307 307 309 309 308 309 309 310 311 311 310 309 309 311 311 317 319 318 318 317 315 314 311 309 309 310 313 313
Wind_Speed
14 12 15 19 19 19 20 20 23 21 19 17 20 18 18 15 22 22 18 17 18 20 20 24 24 34 35 26 30 29 22 24 28 24 27 20 25 19 19 17 21 21 17 16
14 16 18 17 18 18 19 21 20 20 23 21 19 20 17 16 19 19 19 17 14 11 12 19 17 32 37 35 37 34 25 25 28 22 24 21 25 20 21 20 22 22 19 17
19 19 19 18 16 18 18 18 19 19 19 21 21 22 20 20 21 20 21 17 14 15 17 19 20 32 29 33 40 45 37 25 29 21 22 20 22 20 22 24 23 22 21 19
20 20 22 19 16 16 17 18 19 19 16 16 17 16 19 20 22 23 22 20 18 17 17 13 25 26 36 40 42 43 44 30 28 23 22 22 25 23 22 23 24 24 24 21
22 23 23 22 22 21 21 18 18 19 18 18 21 15 18 18 19 22 23 24 22 19 18 16 17 31 40 41 39 38 41 43 51 43 27 22 21 23 24 23 23 24 25 24
24 25 25 22 22 19 19 20 20 18 16 16 20 18 18 18 19 21 17 18 22 10 21 19 21 33 36 38 38 38 40 45 51 46 36 29 29 25 26 28 30 24 23 25
21 25 24 24 25 21 18 14 12 15 14 16 20 21 18 20 21 20 3 11 12 10 8 10 6 19 34 41 41 44 43 46 42 43 43 51 43 26 14 17 26 25 22 22
17 20 18 12 15 21 23 19 14 19 15 19 21 19 18 20 21 17 7 9 7 5 8 12 12 9 1 24 42 41 39 34 36 40 45 45 51 34 24 18 29 29 29 30
8 15 23 22 19 10 16 15 18 21 20 17 19 25 22 14 3 10 12 13 11 4 1 3 8 8 12 12 13 19 22 36 40 37 40 39 37 42 48 41 56 44 29 28
7 16 14 19 22 14 10 13 14 13 19 19 21 20 16 16 10 14 7 9 9 2 5 3 4 8 13 15 12 37 50 50 43 48 48 41 37 42 40 30 41 40 34 31
11 8 15 18 15 16 15 13 16 14 16 14 15 10 14 20 16 13 19 21 11 8 8 6 6 11 15 23 26 26 18 57 48 45 39 36 34 37 27 16 35 38 36 35
10 6 14 18 24 24 22 14 16 9 12 15 16 12 9 13 16 22 13 12 22 15 11 8 7 11 14 20 25 27 28 16 25 31 34 19 31 36 30 26 36 41 36 37
7 5 11 14 14 16 13 14 16 16 15 20 7 10 8 10 6 12 14 17 20 16 13 11 9 9 12 13 18 24 28 31 26 26 42 48 40 35 35 34 38 43 39 38
2 6 13 13 17 19 15 14 12 15 11 18 19 21 9 10 11 8 11 21 21 20 10 8 9 11 11 12 16 22 26 26 30 40 29 34 35 32 32 35 42 35 39 36
5 10 13 16 19 20 18 18 18 15 17 16 19 23 19 4 10 8 12 12 13 18 16 6 8 9 13 19 19 20 27 25 29 27 10 36 32 32 36 38 37 36 41 45
6 4 14 14 19 20 19 20 25 20 20 22 22 22 20 20 6 6 12 15 12 6 14 13 11 11 6 10 15 19 23 24 27 25 30 8 7 29 36 38 33 39 37 36
8 12 11 15 17 17 17 16 18 20 18 18 20 20 19 19 16 9 10 7 6 6 7 8 10 12 11 17 9 14 20 22 24 22 19 11 25 28 29 35 39 37 34 35
12 13 11 13 14 15 18 16 10 16 16 15 15 17 17 17 13 13 14 10 8 8 6 8 10 16 20 16 16 14 13 19 17 18 16 12 6 16 27 33 36 37 33 30
15 11 10 9 12 18 20 15 9 8 16 17 16 14 17 14 14 10 8 12 11 9 7 6 9 14 16 17 17 22 7 10 17 14 14 14 13 4 21 22 26 28 31 31
9 10 8 12 13 17 18 20 23 15 12 21 19 16 18 22 10 5 10 6 4 5 5 4 9 14 17 11 13 12 10 7 8 10 10 14 12 11 3 24 25 27 30 28
5 9 9 9 8 8 8 19 17 10 9 18 18 18 14 17 13 13 4 7 8 8 8 12 8 9 18 18 8 7 10 8 11 6 8 12 11 9 6 8 24 29 29 30
7 6 8 7 5 7 11 16 10 13 15 17 19 18 19 19 18 17 16 14 11 11 13 15 12 10 11 19 13 9 10 8 9 5 6 6 11 8 5 4 14 26 26 26
4 2 4 5 7 17 15 12 14 15 17 20 21 22 21 21 21 19 16 16 14 17 15 16 18 16 11 17 16 7 6 5 5 2 4 4 11 16 12 14 12 6 2 8
7 8 4 9 4 16 16 16 15 17 18 18 19 21 22 23 23 21 18 14 16 17 16 20 20 20 17 13 16 11 8 8 8 4 4 5 7 15 22 26 24 25 24 29
12 11 8 13 15 20 8 17 17 19 19 19 19 19 21 22 21 20 16 16 14 16 19 21 20 21 18 16 15 4 5 10 11 11 7 5 8 10 16 24 22 24 23 25
4 2 1 5 15 11 15 14 20 18 17 17 18 21 17 18 19 19 16 15 17 20 18 16 21 23 19 18 15 11 6 5 9 12 11 8 7 7 9 14 20 17 22 15
Wind_Direction
203 220 218 228 227 249 269 276 277 285 284 246 262 267 243 256 266 249 262 242 232 229 213 224 174 166 160 159 159 170 176 177 178 182 181 178 181 170 163 173 178 174 175 175
224 223 239 238 240 244 256 257 262 275 285 291 287 279 250 248 276 269 244 257 257 225 210 213 169 156 156 159 165 169 178 187 185 199 192 180 178 175 164 177 172 171 175 177
231 242 216 231 247 254 248 260 273 273 277 273 267 266 272 264 251 266 275 267 258 259 228 201 151 151 158 159 173 170 173 191 187 202 199 189 173 174 175 171 173 172 178 180
244 252 256 260 248 236 255 261 251 262 264 265 267 258 248 243 243 245 248 252 245 243 257 242 184 176 173 174 175 176 165 166 192 198 214 200 181 173 181 168 175 177 181 179
254 256 251 254 245 253 267 249 265 274 262 260 252 265 268 264 252 237 230 229 238 233 240 238 207 191 174 177 179 187 178 181 199 182 203 224 199 181 181 173 180 184 180 178
268 276 275 270 269 259 245 263 263 257 264 255 258 247 260 265 266 270 268 238 220 237 222 225 246 174 174 180 181 184 180 181 177 181 172 229 223 183 183 177 178 181 184 183
252 253 256 258 266 265 261 258 247 247 242 249 246 250 263 258 263 269 283 45 54 54 341 343 320 178 177 186 183 186 187 189 190 188 183 199 203 198 159 192 174 177 184 185
285 278 270 320 284 265 235 235 254 255 251 261 258 249 247 246 244 249 117 93 72 31 18 358 352 6 325 214 203 189 185 177 173 179 187 189 187 186 147 246 207 191 191 187
323 288 325 325 330 274 279 275 270 279 284 288 286 283 287 276 343 189 193 141 115 84 20 343 335 346 346 342 196 325 225 188 174 179 189 197 194 175 178 197 221 200 187 188
318 306 304 318 325 297 289 289 297 286 275 254 246 271 286 3 313 219 230 137 99 201 207 93 345 353 337 313 289 172 199 216 182 184 192 195 191 188 192 189 192 190 185 182
322 268 292 302 289 291 303 289 265 272 269 268 274 284 31 5 9 89 11 348 55 358 21 54 33 22 355 348 350 353 179 214 177 186 187 186 196 209 206 192 190 188 184 182
333 300 295 288 299 298 294 287 291 283 274 295 297 257 92 51 11 24 63 341 346 351 6 9 35 41 20 2 349 341 338 330 207 175 176 200 203 210 203 195 191 180 186 183
359 292 306 301 288 245 287 287 287 277 273 260 256 288 102 106 61 15 11 346 335 330 355 351 12 47 35 22 357 348 338 330 325 194 156 190 202 198 199 196 188 181 178 177
51 263 265 277 292 306 302 298 296 293 292 285 260 261 191 195 154 54 10 331 314 311 318 358 345 0 20 20 7 356 340 336 336 337 190 170 193 197 192 182 177 179 182 180
220 266 277 290 302 297 292 287 279 273 278 274 290 294 287 327 142 193 185 208 260 319 320 354 353 342 16 8 7 8 357 354 348 342 171 170 168 176 181 173 176 175 185 190
37 279 283 294 295 298 301 301 298 268 268 272 277 277 287 294 156 215 215 220 200 238 307 307 337 327 18 352 5 9 7 358 349 348 13 285 146 182 180 177 179 186 194 200
229 267 297 287 286 280 287 275 270 309 281 286 270 277 277 280 288 221 203 230 270 263 180 322 333 320 344 1 15 4 9 360 356 359 12 55 175 175 164 178 188 194 203 205
263 266 277 283 290 291 286 297 302 260 267 276 289 285 284 278 279 289 295 294 276 282 52 31 340 327 332 338 333 330 7 352 360 349 352 11 43 189 180 185 194 200 203 209
225 254 266 276 275 277 290 294 297 301 307 298 315 298 315 314 318 294 44 38 29 52 40 8 327 316 311 319 322 329 1 6 347 4 350 354 351 32 189 197 202 204 207 217
220 229 261 274 275 278 280 298 345 345 285 10 353 342 336 335 288 295 34 25 25 349 309 316 313 317 312 291 286 321 311 10 336 359 356 342 348 343 238 211 207 211 203 213
256 257 272 262 266 266 7 357 334 280 332 329 330 324 324 315 317 321 345 288 312 300 288 292 288 299 313 317 281 294 301 317 328 348 7 355 348 2 347 261 221 212 212 213
313 299 269 273 252 258 8 339 344 313 319 322 314 311 304 298 295 304 316 306 307 307 305 298 291 283 302 304 296 305 303 291 299 357 36 25 18 21 358 338 229 224 213 212
293 19 289 300 294 320 319 334 332 323 310 315 315 310 305 299 296 296 277 286 285 293 293 297 297 290 273 277 294 253 257 263 293 79 91 85 71 57 59 70 66 126 144 243
322 321 264 298 293 310 341 320 330 322 316 312 302 297 292 286 285 283 281 258 262 286 274 279 283 284 279 266 287 273 223 228 240 196 112 92 96 83 73 68 70 60 65 62
290 302 296 293 303 331 313 323 313 304 297 292 293 288 278 279 281 276 278 269 278 271 279 272 263 270 266 275 272 226 249 256 207 216 159 152 104 104 91 87 82 76 63 77
25 63 309 289 310 292 294 300 299 300 301 296 293 293 276 266 273 274 264 264 276 267 264 273 274 266 256 264 266 280 266 230 237 205 174 162 148 147 111 99 92 93 95 64